Wakefield, VA

11:32 AM EDT on August 25, 2019 (GMT -0400)
Wakefield Municipal

Weather History for KAKQ - June, 2019

Change the Weather History Date:

Wednesday, June 12, 2019

  Actual Average (WUND) Record (WUND)
Temperature  
Mean Temperature 66 °F -  
Max Temperature 78 °F - - (-1)
Min Temperature 55 °F - - (-1)
Cooling Degree Days 1    
Growing Degree Days 16 (Base 50)    
Moisture  
Dew Point 57 °F    
Average Humidity 71    
Maximum Humidity 93    
Minimum Humidity 43    
Precipitation  
Precipitation 0.00 in - - ()
Sea Level Pressure  
Sea Level Pressure 30.05 in    
Wind  
Wind Speed 2 mph (East)    
Max Wind Speed 10 mph    
Max Gust Speed 20 mph    
Visibility 10 miles    
Events Rain    
Averages and records for this station are not official NWS values.
T = Trace of Precipitation, MM = Missing Value Source: NWS Daily Summary

Daily Weather History Graph

Daily Weather History Graph

Search for Another Location

Airport or City:

Astronomy

Jun. 12, 2019 Rise Set
Actual Time 5:47 AM EDT 8:27 PM EDT
Civil Twilight 5:17 AM EDT 8:58 PM EDT
Nautical Twilight 4:38 AM EDT 9:37 PM EDT
Astronomical Twilight 3:55 AM EDT 10:20 PM EDT
Moon 3:40 PM EDT (6/12) 2:52 AM EDT (6/12)
Length of Visible Light 15h 41m
Length of Day
14h 40m
Waxing Gibbous, 76% of the Moon is Illuminated
Jun 12
Waxing Gibbous
Jun 17
Full
Jun 25
Last Quarter
Jul 2
New
Jul 9
First Quarter

Hourly Weather History & Observations

Time (EDT) Temp. Dew Point Humidity Pressure Visibility Wind Dir Wind Speed Gust Speed Precip Events Conditions
12:54 AM 57.0 °F 55.0 °F 93% 30.11 in 10.0 mi Calm Calm - N/A   Clear
1:54 AM 57.0 °F 54.0 °F 89% 30.10 in 10.0 mi Calm Calm - N/A   Clear
2:54 AM 57.0 °F 54.0 °F 89% 30.09 in 10.0 mi Calm Calm - N/A   Clear
3:54 AM 55.9 °F 54.0 °F 93% 30.09 in 9.0 mi Calm Calm - N/A   Clear
4:54 AM 57.0 °F 54.0 °F 89% 30.10 in 10.0 mi Calm Calm - N/A   Clear
5:54 AM 55.9 °F 54.0 °F 93% 30.10 in 8.0 mi Calm Calm - N/A   Clear
6:54 AM 60.1 °F 57.0 °F 90% 30.12 in 10.0 mi Calm Calm - N/A   Clear
7:54 AM 64.9 °F 60.1 °F 84% 30.13 in 10.0 mi Calm Calm - N/A   Clear
9:54 AM 72.0 °F 55.0 °F 55% 30.14 in 10.0 mi East 6.9 mph - N/A   Clear
10:54 AM 73.9 °F 53.1 °F 48% 30.14 in 10.0 mi East 10.4 mph 19.6 mph N/A   Clear
11:54 AM 75.9 °F 53.1 °F 45% 30.13 in 10.0 mi ESE 6.9 mph - N/A   Clear
12:54 PM 75.9 °F 52.0 °F 43% 30.12 in 10.0 mi East 8.1 mph - N/A   Partly Cloudy
1:54 PM 75.9 °F 53.1 °F 45% 30.09 in 10.0 mi East 8.1 mph - N/A   Mostly Cloudy
2:54 PM 77.0 °F 54.0 °F 45% 30.08 in 10.0 mi East 8.1 mph - N/A   Mostly Cloudy
3:54 PM 75.0 °F 57.9 °F 55% 30.06 in 10.0 mi East 8.1 mph - N/A   Mostly Cloudy
4:54 PM 73.9 °F 57.0 °F 55% 30.03 in 10.0 mi ENE 6.9 mph - N/A   Overcast
5:54 PM 73.0 °F 55.9 °F 55% 30.02 in 10.0 mi Variable 3.5 mph - N/A   Mostly Cloudy
6:54 PM 72.0 °F 55.9 °F 57% 30.01 in 10.0 mi East 4.6 mph - N/A   Overcast
7:54 PM 71.1 °F 59.0 °F 66% 30.01 in 10.0 mi Calm Calm - N/A   Overcast
8:54 PM 70.0 °F 60.1 °F 71% 29.99 in 9.0 mi Calm Calm - N/A   Overcast
9:46 PM 68.0 °F 62.1 °F 81% 29.98 in 10.0 mi Calm Calm - 0.00 in   Overcast
9:54 PM 68.0 °F 63.0 °F 84% 29.97 in 10.0 mi Calm Calm - 0.00 in   Overcast
10:54 PM 69.1 °F 64.0 °F 84% 29.95 in 7.0 mi ENE 4.6 mph - 0.00 in Rain Light Rain
11:06 PM 69.1 °F 64.0 °F 84% 29.94 in 9.0 mi East 5.8 mph - 0.00 in   Overcast
11:37 PM 68.0 °F 63.0 °F 84% 29.92 in 10.0 mi East 5.8 mph - 0.00 in   Overcast
11:54 PM 68.0 °F 62.1 °F 81% 29.92 in 5.0 mi East 3.5 mph - 0.00 in Rain Light Rain